Time,TemperatureF,DewpointF,PressureIn,WindDirection,WindDirectionDegrees,WindSpeedMPH,WindSpeedGustMPH,Humidity,HourlyPrecipIn,Conditions,Clouds,dailyrainin,SoftwareType,DateUTC
2013-02-22 00:02:00,26.0,14.0,30.24,North,349,6.0,13.0,61,0.00,,,0.00,,2013-02-22 05:02:00,
2013-02-22 00:12:00,26.0,14.0,30.24,North,349,6.0,13.0,61,0.00,,,0.00,,2013-02-22 05:12:00,
2013-02-22 00:22:00,26.0,14.0,30.23,North,356,7.0,13.0,60,0.00,,,0.00,,2013-02-22 05:22:00,
2013-02-22 00:32:00,26.0,14.0,30.23,North,0,4.0,8.0,60,0.00,,,0.00,,2013-02-22 05:32:00,
2013-02-22 00:42:00,26.0,15.0,30.22,NNE,22,5.0,12.0,62,0.00,,,0.00,,2013-02-22 05:42:00,
2013-02-22 00:52:00,26.0,15.0,30.22,NNE,22,5.0,12.0,62,0.00,,,0.00,,2013-02-22 05:52:00,
2013-02-22 01:01:00,26.0,15.0,30.22,NNE,32,2.0,10.0,62,0.00,,,0.00,,2013-02-22 06:01:00,
2013-02-22 01:12:00,26.0,15.0,30.23,NNE,12,3.0,10.0,63,0.00,,,0.00,,2013-02-22 06:12:00,
2013-02-22 01:22:00,26.0,15.0,30.23,NNE,12,3.0,10.0,63,0.00,,,0.00,,2013-02-22 06:22:00,
2013-02-22 01:32:00,26.0,15.0,30.22,North,1,5.0,16.0,63,0.00,,,0.00,,2013-02-22 06:32:00,
2013-02-22 01:42:00,26.0,15.0,30.22,North,1,5.0,16.0,63,0.00,,,0.00,,2013-02-22 06:42:00,
2013-02-22 01:52:00,26.0,15.0,30.23,NE,45,3.0,12.0,63,0.00,,,0.00,,2013-02-22 06:52:00,
2013-02-22 02:01:00,26.0,16.0,30.23,North,354,3.0,8.0,65,0.00,,,0.00,,2013-02-22 07:01:00,
2013-02-22 02:11:00,26.0,16.0,30.23,NNW,339,3.0,10.0,65,0.00,,,0.00,,2013-02-22 07:11:00,
2013-02-22 02:21:00,26.0,16.0,30.23,NNW,339,3.0,10.0,65,0.00,,,0.00,,2013-02-22 07:21:00,
2013-02-22 02:31:00,26.0,16.0,30.24,North,1,6.0,13.0,66,0.00,,,0.00,,2013-02-22 07:31:00,
2013-02-22 02:42:00,26.0,16.0,30.24,North,355,2.0,7.0,66,0.00,,,0.00,,2013-02-22 07:42:00,
2013-02-22 02:51:00,26.0,16.0,30.24,North,355,2.0,7.0,66,0.00,,,0.00,,2013-02-22 07:51:00,
2013-02-22 03:01:00,26.0,16.0,30.24,North,0,2.0,8.0,66,0.00,,,0.00,,2013-02-22 08:01:00,
2013-02-22 03:11:00,26.0,16.0,30.24,NNW,336,3.0,12.0,66,0.00,,,0.00,,2013-02-22 08:11:00,
2013-02-22 03:21:00,26.0,16.0,30.24,NNW,336,3.0,12.0,66,0.00,,,0.00,,2013-02-22 08:21:00,
2013-02-22 03:31:00,26.0,17.0,30.26,North,350,1.0,5.0,67,0.00,,,0.00,,2013-02-22 08:31:00,
2013-02-22 03:42:00,26.0,17.0,30.26,North,350,1.0,5.0,67,0.00,,,0.00,,2013-02-22 08:42:00,
2013-02-22 03:52:00,26.0,17.0,30.27,North,352,4.0,12.0,68,0.00,,,0.00,,2013-02-22 08:52:00,
2013-02-22 04:03:00,26.0,17.0,30.28,North,350,3.0,10.0,68,0.00,,,0.00,,2013-02-22 09:03:00,
2013-02-22 04:11:00,26.0,17.0,30.27,North,359,3.0,12.0,68,0.00,,,0.00,,2013-02-22 09:11:00,
2013-02-22 04:21:00,26.0,17.0,30.27,North,359,3.0,12.0,68,0.00,,,0.00,,2013-02-22 09:21:00,
2013-02-22 04:32:00,26.0,17.0,30.27,North,4,3.0,8.0,68,0.00,,,0.00,,2013-02-22 09:32:00,
2013-02-22 04:42:00,26.0,17.0,30.28,NNE,14,2.0,6.0,69,0.00,,,0.00,,2013-02-22 09:42:00,
2013-02-22 04:51:00,26.0,17.0,30.28,NNE,14,2.0,6.0,69,0.00,,,0.00,,2013-02-22 09:51:00,
2013-02-22 05:01:00,26.0,17.0,30.28,NNE,14,2.0,6.0,69,0.00,,,0.00,,2013-02-22 10:01:00,
2013-02-22 05:11:00,26.0,17.0,30.30,NNE,18,3.0,7.0,69,0.00,,,0.00,,2013-02-22 10:11:00,
2013-02-22 05:21:00,26.0,17.0,30.30,NNE,18,3.0,7.0,69,0.00,,,0.00,,2013-02-22 10:21:00,
2013-02-22 05:32:00,26.0,17.0,30.30,NNE,16,2.0,6.0,68,0.00,,,0.00,,2013-02-22 10:32:00,
2013-02-22 05:42:00,25.0,16.0,30.29,NNE,13,0.0,3.0,69,0.00,,,0.00,,2013-02-22 10:42:00,
2013-02-22 05:52:00,25.0,16.0,30.29,NNE,13,0.0,3.0,69,0.00,,,0.00,,2013-02-22 10:52:00,
2013-02-22 06:01:00,25.0,17.0,30.30,North,11,0.0,5.0,70,0.00,,,0.00,,2013-02-22 11:01:00,
2013-02-22 06:11:00,25.0,17.0,30.30,North,11,0.0,5.0,70,0.00,,,0.00,,2013-02-22 11:11:00,
2013-02-22 06:22:00,25.0,17.0,30.30,North,11,0.0,5.0,70,0.00,,,0.00,,2013-02-22 11:22:00,
2013-02-22 06:32:00,25.0,17.0,30.32,North,8,1.0,3.0,70,0.00,,,0.00,,2013-02-22 11:32:00,
2013-02-22 06:42:00,25.0,17.0,30.32,North,8,1.0,3.0,70,0.00,,,0.00,,2013-02-22 11:42:00,
2013-02-22 06:52:00,25.0,17.0,30.32,North,8,0.0,1.0,71,0.00,,,0.00,,2013-02-22 11:52:00,
2013-02-22 07:02:00,25.0,17.0,30.35,North,8,1.0,3.0,71,0.00,,,0.00,,2013-02-22 12:02:00,
2013-02-22 07:11:00,25.0,17.0,30.35,North,8,1.0,3.0,71,0.00,,,0.00,,2013-02-22 12:11:00,
2013-02-22 07:22:00,25.0,17.0,30.35,North,8,1.0,3.0,71,0.00,,,0.00,,2013-02-22 12:22:00,
2013-02-22 07:32:00,26.0,18.0,30.35,North,10,0.0,3.0,70,0.00,,,0.00,,2013-02-22 12:32:00,
2013-02-22 07:42:00,26.0,18.0,30.35,North,10,0.0,3.0,70,0.00,,,0.00,,2013-02-22 12:42:00,
2013-02-22 07:52:00,26.0,18.0,30.35,NNE,13,1.0,3.0,70,0.00,,,0.00,,2013-02-22 12:52:00,
2013-02-22 08:02:00,26.0,18.0,30.35,NNE,13,0.0,5.0,70,0.00,,,0.00,,2013-02-22 13:02:00,
2013-02-22 08:11:00,26.0,18.0,30.35,NNE,13,0.0,5.0,70,0.00,,,0.00,,2013-02-22 13:11:00,
2013-02-22 08:22:00,27.0,18.0,30.36,NNE,14,1.0,3.0,68,0.00,,,0.00,,2013-02-22 13:22:00,
2013-02-22 08:32:00,27.0,18.0,30.35,NNE,16,0.0,6.0,68,0.00,,,0.00,,2013-02-22 13:32:00,
2013-02-22 08:42:00,27.0,18.0,30.35,NNE,16,0.0,6.0,68,0.00,,,0.00,,2013-02-22 13:42:00,
2013-02-22 08:52:00,28.0,18.0,30.37,NNE,13,2.0,5.0,66,0.00,,,0.00,,2013-02-22 13:52:00,
2013-02-22 09:01:00,28.0,18.0,30.37,NNE,17,3.0,8.0,66,0.00,,,0.00,,2013-02-22 14:01:00,
2013-02-22 09:11:00,28.0,18.0,30.36,NNE,23,3.0,5.0,66,0.00,,,0.00,,2013-02-22 14:11:00,
2013-02-22 09:21:00,28.0,18.0,30.36,NNE,23,3.0,5.0,66,0.00,,,0.00,,2013-02-22 14:21:00,
2013-02-22 09:32:00,28.0,18.0,30.36,NNE,23,3.0,5.0,66,0.00,,,0.00,,2013-02-22 14:32:00,
2013-02-22 09:42:00,29.0,18.0,30.35,NE,34,3.0,6.0,63,0.00,,,0.00,,2013-02-22 14:42:00,
2013-02-22 09:52:00,29.0,18.0,30.35,NE,34,3.0,6.0,63,0.00,,,0.00,,2013-02-22 14:52:00,
2013-02-22 10:02:00,30.0,19.0,30.34,NNE,32,2.0,6.0,63,0.00,,,0.00,,2013-02-22 15:02:00,
2013-02-22 10:12:00,30.0,18.0,30.34,NE,34,1.0,5.0,61,0.00,,,0.00,,2013-02-22 15:12:00,
2013-02-22 10:22:00,30.0,18.0,30.34,NE,34,1.0,5.0,61,0.00,,,0.00,,2013-02-22 15:22:00,
2013-02-22 10:32:00,31.0,19.0,30.34,NNE,32,1.0,3.0,60,0.00,,,0.00,,2013-02-22 15:32:00,
2013-02-22 10:42:00,31.0,19.0,30.34,NNE,32,1.0,3.0,60,0.00,,,0.00,,2013-02-22 15:42:00,
2013-02-22 10:52:00,32.0,19.0,30.34,NNE,32,1.0,3.0,59,0.00,,,0.00,,2013-02-22 15:52:00,
2013-02-22 11:01:00,33.0,19.0,30.34,NNE,32,1.0,7.0,57,0.00,,,0.00,,2013-02-22 16:01:00,
2013-02-22 11:12:00,34.0,20.0,30.34,NNE,32,2.0,6.0,56,0.00,,,0.00,,2013-02-22 16:12:00,
2013-02-22 11:22:00,34.0,20.0,30.34,NNE,32,2.0,6.0,56,0.00,,,0.00,,2013-02-22 16:22:00,
2013-02-22 11:32:00,34.0,20.0,30.34,NE,37,2.0,10.0,56,0.00,,,0.00,,2013-02-22 16:32:00,
2013-02-22 11:42:00,34.0,20.0,30.34,NE,37,2.0,10.0,56,0.00,,,0.00,,2013-02-22 16:42:00,
2013-02-22 11:52:00,34.0,19.0,30.34,NE,38,3.0,8.0,54,0.00,,,0.00,,2013-02-22 16:52:00,
2013-02-22 12:01:00,35.0,20.0,30.33,NE,38,1.0,2.0,53,0.00,,,0.00,,2013-02-22 17:01:00,
2013-02-22 12:11:00,35.0,20.0,30.33,NNE,25,2.0,7.0,54,0.00,,,0.00,,2013-02-22 17:11:00,
2013-02-22 12:21:00,35.0,20.0,30.33,NNE,25,2.0,7.0,54,0.00,,,0.00,,2013-02-22 17:21:00,
2013-02-22 12:32:00,35.0,20.0,30.32,NNE,25,2.0,5.0,53,0.00,,,0.00,,2013-02-22 17:32:00,
2013-02-22 12:42:00,35.0,20.0,30.32,NNE,25,2.0,5.0,53,0.00,,,0.00,,2013-02-22 17:42:00,
2013-02-22 12:52:00,36.0,21.0,30.31,NNE,28,1.0,3.0,53,0.00,,,0.00,,2013-02-22 17:52:00,
2013-02-22 13:01:00,36.0,21.0,30.30,NNE,28,1.0,3.0,53,0.00,,,0.00,,2013-02-22 18:01:00,
2013-02-22 13:12:00,36.0,21.0,30.30,NNE,28,1.0,5.0,53,0.00,,,0.00,,2013-02-22 18:12:00,
2013-02-22 13:22:00,36.0,21.0,30.30,NNE,28,1.0,5.0,53,0.00,,,0.00,,2013-02-22 18:22:00,
2013-02-22 13:32:00,37.0,21.0,30.30,NE,37,0.0,3.0,53,0.00,,,0.00,,2013-02-22 18:32:00,
2013-02-22 13:42:00,37.0,21.0,30.30,NE,37,0.0,3.0,53,0.00,,,0.00,,2013-02-22 18:42:00,
2013-02-22 13:51:00,37.0,21.0,30.29,NE,38,1.0,5.0,53,0.00,,,0.00,,2013-02-22 18:51:00,
2013-02-22 14:01:00,37.0,21.0,30.28,NE,55,2.0,7.0,53,0.00,,,0.00,,2013-02-22 19:01:00,
2013-02-22 14:11:00,37.0,21.0,30.27,NE,55,1.0,3.0,53,0.00,,,0.00,,2013-02-22 19:11:00,
2013-02-22 14:21:00,37.0,21.0,30.27,NE,55,1.0,3.0,53,0.00,,,0.00,,2013-02-22 19:21:00,
2013-02-22 14:31:00,38.0,22.0,30.27,NE,55,1.0,3.0,52,0.00,,,0.00,,2013-02-22 19:31:00,
2013-02-22 14:41:00,39.0,23.0,30.27,NE,55,0.0,3.0,52,0.00,,,0.00,,2013-02-22 19:41:00,
2013-02-22 14:52:00,39.0,23.0,30.27,NE,55,0.0,3.0,52,0.00,,,0.00,,2013-02-22 19:52:00,
2013-02-22 15:01:00,38.0,22.0,30.27,NE,55,1.0,5.0,52,0.00,,,0.00,,2013-02-22 20:01:00,
2013-02-22 15:11:00,38.0,22.0,30.27,NE,55,1.0,5.0,52,0.00,,,0.00,,2013-02-22 20:11:00,
2013-02-22 15:21:00,38.0,22.0,30.27,ESE,121,2.0,9.0,53,0.00,,,0.00,,2013-02-22 20:21:00,
2013-02-22 15:32:00,38.0,22.0,30.26,ESE,121,3.0,7.0,53,0.00,,,0.00,,2013-02-22 20:32:00,
2013-02-22 15:42:00,38.0,22.0,30.26,ESE,121,3.0,7.0,53,0.00,,,0.00,,2013-02-22 20:42:00,
2013-02-22 15:52:00,37.0,22.0,30.26,ESE,123,2.0,7.0,55,0.00,,,0.00,,2013-02-22 20:52:00,
2013-02-22 16:01:00,37.0,23.0,30.27,SE,143,2.0,8.0,56,0.00,,,0.00,,2013-02-22 21:01:00,
2013-02-22 16:11:00,37.0,23.0,30.27,SE,143,0.0,5.0,57,0.00,,,0.00,,2013-02-22 21:11:00,
2013-02-22 16:21:00,37.0,23.0,30.27,SE,143,0.0,5.0,57,0.00,,,0.00,,2013-02-22 21:21:00,
2013-02-22 16:32:00,37.0,24.0,30.27,SE,144,2.0,12.0,59,0.00,,,0.00,,2013-02-22 21:32:00,
2013-02-22 16:42:00,36.0,23.0,30.27,SSE,150,3.0,7.0,60,0.00,,,0.00,,2013-02-22 21:42:00,
2013-02-22 16:52:00,36.0,23.0,30.27,SSE,150,3.0,7.0,60,0.00,,,0.00,,2013-02-22 21:52:00,
2013-02-22 17:01:00,36.0,24.0,30.28,SSE,150,2.0,7.0,61,0.00,,,0.00,,2013-02-22 22:01:00,
2013-02-22 17:11:00,36.0,24.0,30.28,SSE,150,2.0,7.0,61,0.00,,,0.00,,2013-02-22 22:11:00,
2013-02-22 17:21:00,36.0,24.0,30.28,SSE,150,2.0,3.0,62,0.00,,,0.00,,2013-02-22 22:21:00,
2013-02-22 17:32:00,36.0,25.0,30.28,SSE,150,1.0,10.0,65,0.00,,,0.00,,2013-02-22 22:32:00,
2013-02-22 17:42:00,36.0,26.0,30.28,SSE,150,1.0,5.0,66,0.00,,,0.00,,2013-02-22 22:42:00,
2013-02-22 17:51:00,36.0,26.0,30.28,SSE,150,1.0,5.0,66,0.00,,,0.00,,2013-02-22 22:51:00,
2013-02-22 18:01:00,36.0,26.0,30.28,SSE,150,1.0,3.0,67,0.00,,,0.00,,2013-02-22 23:01:00,
2013-02-22 18:11:00,36.0,26.0,30.28,SSE,150,1.0,3.0,67,0.00,,,0.00,,2013-02-22 23:11:00,
2013-02-22 18:21:00,36.0,26.0,30.29,SSE,150,1.0,3.0,68,0.00,,,0.00,,2013-02-22 23:21:00,
2013-02-22 18:31:00,36.0,26.0,30.29,SSE,150,1.0,3.0,68,0.00,,,0.00,,2013-02-22 23:31:00,
2013-02-22 18:42:00,36.0,26.0,30.29,SSE,150,1.0,3.0,68,0.00,,,0.00,,2013-02-22 23:42:00,
2013-02-22 18:52:00,36.0,27.0,30.29,SSE,150,1.0,3.0,69,0.00,,,0.00,,2013-02-22 23:52:00,
2013-02-22 19:02:00,36.0,27.0,30.29,SSE,150,2.0,6.0,69,0.00,,,0.00,,2013-02-23 00:02:00,
2013-02-22 19:11:00,36.0,27.0,30.28,SSE,150,1.0,5.0,70,0.00,,,0.00,,2013-02-23 00:11:00,
2013-02-22 19:21:00,36.0,27.0,30.28,SSE,150,1.0,5.0,70,0.00,,,0.00,,2013-02-23 00:21:00,
2013-02-22 19:32:00,36.0,27.0,30.27,SSE,150,2.0,8.0,70,0.00,,,0.00,,2013-02-23 00:32:00,
2013-02-22 19:42:00,36.0,27.0,30.27,SSE,150,2.0,8.0,70,0.00,,,0.00,,2013-02-23 00:42:00,
2013-02-22 19:52:00,36.0,27.0,30.27,SSE,150,1.0,3.0,70,0.00,,,0.00,,2013-02-23 00:52:00,
2013-02-22 20:01:00,36.0,27.0,30.27,SSE,150,0.0,7.0,70,0.00,,,0.00,,2013-02-23 01:01:00,
2013-02-22 20:11:00,36.0,27.0,30.27,SSE,150,0.0,7.0,70,0.00,,,0.00,,2013-02-23 01:11:00,
2013-02-22 20:21:00,36.0,27.0,30.28,SSE,150,1.0,6.0,70,0.00,,,0.00,,2013-02-23 01:21:00,
2013-02-22 20:32:00,36.0,27.0,30.28,SE,141,2.0,6.0,70,0.00,,,0.00,,2013-02-23 01:32:00,
2013-02-22 20:42:00,36.0,27.0,30.28,SE,141,2.0,6.0,70,0.00,,,0.00,,2013-02-23 01:42:00,
2013-02-22 20:52:00,36.0,28.0,30.28,SE,141,0.0,3.0,72,0.00,,,0.00,,2013-02-23 01:52:00,
2013-02-22 21:01:00,36.0,28.0,30.27,SE,141,1.0,3.0,72,0.00,,,0.00,,2013-02-23 02:01:00,
2013-02-22 21:11:00,36.0,28.0,30.27,SE,141,2.0,6.0,73,0.00,,,0.00,,2013-02-23 02:11:00,
2013-02-22 21:21:00,36.0,28.0,30.27,SE,141,2.0,6.0,73,0.00,,,0.00,,2013-02-23 02:21:00,
2013-02-22 21:32:00,36.0,28.0,30.27,SE,141,1.0,5.0,73,0.00,,,0.00,,2013-02-23 02:32:00,
2013-02-22 21:42:00,36.0,28.0,30.27,SE,141,1.0,5.0,73,0.00,,,0.00,,2013-02-23 02:42:00,
2013-02-22 21:52:00,36.0,28.0,30.26,SE,141,0.0,3.0,73,0.00,,,0.00,,2013-02-23 02:52:00,
2013-02-22 22:02:00,36.0,29.0,30.26,SE,141,1.0,5.0,74,0.00,,,0.00,,2013-02-23 03:02:00,
2013-02-22 22:11:00,36.0,29.0,30.26,SE,141,0.0,2.0,74,0.00,,,0.00,,2013-02-23 03:11:00,
2013-02-22 22:21:00,36.0,29.0,30.26,SE,141,0.0,2.0,74,0.00,,,0.00,,2013-02-23 03:21:00,
2013-02-22 22:32:00,36.0,29.0,30.25,SE,141,0.0,2.0,74,0.00,,,0.00,,2013-02-23 03:32:00,
2013-02-22 22:42:00,36.0,29.0,30.25,SE,141,0.0,2.0,74,0.00,,,0.00,,2013-02-23 03:42:00,
2013-02-22 22:51:00,36.0,29.0,30.25,SE,141,0.0,2.0,74,0.00,,,0.00,,2013-02-23 03:51:00,
2013-02-22 23:01:00,36.0,29.0,30.25,SE,140,1.0,2.0,75,0.00,,,0.00,,2013-02-23 04:01:00,
2013-02-22 23:11:00,36.0,29.0,30.25,SE,140,0.0,2.0,75,0.00,,,0.00,,2013-02-23 04:11:00,
2013-02-22 23:21:00,36.0,29.0,30.25,SE,140,0.0,2.0,75,0.00,,,0.00,,2013-02-23 04:21:00,
2013-02-22 23:32:00,36.0,29.0,30.24,SE,140,1.0,2.0,75,0.00,,,0.00,,2013-02-23 04:32:00,
2013-02-22 23:41:00,36.0,29.0,30.24,SE,140,1.0,2.0,75,0.00,,,0.00,,2013-02-23 04:41:00,
2013-02-22 23:52:00,37.0,30.0,30.24,SE,140,1.0,3.0,76,0.00,,,0.00,,2013-02-23 04:52:00,